When you browse on this site, cookies collect data to enhance your experience and personalize the content and advertising you see.
Visit our Privacy Policy to learn more. By continuing to use the site, you agree to this use of cookies and data.
  • în România
  • Lista ţărilor
  • Pe 7 zile
  • Temperatura apei
  • Hartă satelitară
  • Meteo pe hartă
  • Widget-uri
  • user-avatar
    Intrare

    Meteo pe oră la Lubango

    Astăzi, 22 Martie, Vineri

    Timp Temperatura Precipitaţii Vânt Presiune Umiditate
    00:00 +18°C° 0.3 mm 1 m/s 607 mmHg 83%
    01:00 +18°C° 0.3 mm 1 m/s 607 mmHg 81%
    02:00 +18°C° 0.9 mm 1 m/s 607 mmHg 81%
    03:00 +18°C° 0.9 mm 1 m/s 607 mmHg 81%
    04:00 +18°C° 0.9 mm 1 m/s 607 mmHg 80%
    05:00 +18°C° 0.4 mm 1 m/s 608 mmHg 80%
    06:00 +19°C° 0.4 mm 1 m/s 608 mmHg 80%
    07:00 +19°C° 0.4 mm 1 m/s 608 mmHg 79%
    08:00 +21°C° 0.5 mm 1 m/s 609 mmHg 70%
    09:00 +24°C° 0.5 mm 2 m/s 610 mmHg 60%
    10:00 +26°C° 0.5 mm 2 m/s 611 mmHg 51%
    11:00 +27°C° 0.2 mm 3 m/s 611 mmHg 47%
    12:00 +28°C° 0.2 mm 3 m/s 611 mmHg 42%
    13:00 +29°C° 0.2 mm 4 m/s 611 mmHg 38%
    14:00 +28°C° 0 mm 3 m/s 610 mmHg 41%
    15:00 +27°C° 0 mm 3 m/s 609 mmHg 44%
    16:00 +26°C° 0 mm 2 m/s 609 mmHg 47%
    17:00 +24°C° 0 mm 2 m/s 609 mmHg 53%
    18:00 +22°C° 0 mm 1 m/s 608 mmHg 59%
    19:00 +20°C° 0 mm 1 m/s 608 mmHg 65%
    20:00 +20°C° 1.1 mm 1 m/s 608 mmHg 70%
    21:00 +19°C° 1.1 mm 1 m/s 609 mmHg 75%
    22:00 +19°C° 1.1 mm 1 m/s 609 mmHg 81%
    23:00 +19°C° 0.2 mm 1 m/s 609 mmHg 81%

    Mâine, 23 Martie, Sâmbătă

    Timp Temperatura Precipitaţii Vânt Presiune Umiditate
    00:00 +18°C° 0.2 mm 1 m/s 609 mmHg 81%
    01:00 +18°C° 0.2 mm 1 m/s 609 mmHg 81%
    02:00 +18°C° 0.2 mm 1 m/s 608 mmHg 82%
    03:00 +16°C° 0.2 mm 1 m/s 608 mmHg 83%
    04:00 +16°C° 0.2 mm 1 m/s 607 mmHg 84%
    05:00 +18°C° 0.1 mm 1 m/s 607 mmHg 80%
    06:00 +18°C° 0.1 mm 1 m/s 608 mmHg 77%
    07:00 +19°C° 0.1 mm 1 m/s 608 mmHg 73%
    08:00 +21°C° 0 mm 1 m/s 609 mmHg 65%
    09:00 +24°C° 0 mm 2 m/s 610 mmHg 56%
    10:00 +26°C° 0 mm 2 m/s 611 mmHg 48%
    11:00 +26°C° 0.1 mm 2 m/s 611 mmHg 47%
    12:00 +27°C° 0.1 mm 2 m/s 611 mmHg 46%
    13:00 +27°C° 0.1 mm 2 m/s 610 mmHg 45%
    14:00 +26°C° 1.1 mm 2 m/s 609 mmHg 51%
    15:00 +24°C° 1.1 mm 1 m/s 608 mmHg 58%
    16:00 +22°C° 1.1 mm 1 m/s 607 mmHg 65%
    17:00 +22°C° 0.7 mm 1 m/s 608 mmHg 67%
    18:00 +21°C° 0.7 mm 1 m/s 608 mmHg 69%
    19:00 +20°C° 0.7 mm 1 m/s 608 mmHg 71%
    20:00 +19°C° 1.1 mm 1 m/s 608 mmHg 76%
    21:00 +18°C° 1.1 mm 1 m/s 608 mmHg 82%
    22:00 +16°C° 1.1 mm 1 m/s 608 mmHg 88%
    23:00 +18°C° 1.1 mm 1 m/s 608 mmHg 87%

    Poimâine, 24 Martie, Duminică

    Timp Temperatura Precipitaţii Vânt Presiune Umiditate
    00:00 +18°C° 1.1 mm 1 m/s 608 mmHg 86%
    01:00 +18°C° 1.1 mm 1 m/s 608 mmHg 85%
    02:00 +18°C° 0 mm 1 m/s 608 mmHg 83%
    03:00 +18°C° 0 mm 1 m/s 608 mmHg 82%
    04:00 +18°C° 0 mm 1 m/s 607 mmHg 81%
    05:00 +18°C° 0 mm 1 m/s 608 mmHg 80%
    06:00 +18°C° 0 mm 1 m/s 608 mmHg 79%
    07:00 +18°C° 0 mm 1 m/s 608 mmHg 78%
    08:00 +21°C° 0 mm 1 m/s 609 mmHg 68%
    09:00 +23°C° 0 mm 1 m/s 610 mmHg 59%
    10:00 +25°C° 0 mm 1 m/s 611 mmHg 49%
    11:00 +26°C° 0 mm 1 m/s 611 mmHg 46%
    12:00 +27°C° 0 mm 1 m/s 611 mmHg 43%
    13:00 +28°C° 0 mm 1 m/s 610 mmHg 40%
    14:00 +27°C° 0 mm 1 m/s 609 mmHg 43%
    15:00 +26°C° 0 mm 1 m/s 609 mmHg 46%
    16:00 +24°C° 0 mm 1 m/s 608 mmHg 49%
    17:00 +23°C° 0 mm 1 m/s 608 mmHg 52%
    18:00 +22°C° 0 mm 1 m/s 608 mmHg 56%
    19:00 +21°C° 0 mm 1 m/s 608 mmHg 59%
    20:00 +21°C° 0 mm 1 m/s 608 mmHg 63%
    21:00 +20°C° 0 mm 1 m/s 609 mmHg 67%
    22:00 +19°C° 0 mm 1 m/s 609 mmHg 71%
    23:00 +19°C° 0 mm 1 m/s 608 mmHg 75%

    25 Martie, Luni

    Timp Temperatura Precipitaţii Vânt Presiune Umiditate
    00:00 +18°C° 0 mm 1 m/s 608 mmHg 78%
    01:00 +18°C° 0 mm 1 m/s 608 mmHg 81%
    02:00 +16°C° 0 mm 1 m/s 607 mmHg 80%
    03:00 +16°C° 0 mm 1 m/s 607 mmHg 79%
    04:00 +16°C° 0 mm 1 m/s 607 mmHg 79%
    05:00 +18°C° 0 mm 1 m/s 607 mmHg 73%
    06:00 +18°C° 0 mm 1 m/s 608 mmHg 67%
    07:00 +19°C° 0 mm 1 m/s 608 mmHg 61%
    08:00 +22°C° 0 mm 1 m/s 609 mmHg 52%
    09:00 +25°C° 0 mm 1 m/s 611 mmHg 42%
    10:00 +28°C° 0 mm 1 m/s 612 mmHg 33%
    11:00 +29°C° 0 mm 1 m/s 612 mmHg 32%
    12:00 +29°C° 0 mm 2 m/s 611 mmHg 31%
    13:00 +30°C° 0 mm 2 m/s 611 mmHg 30%
    14:00 +28°C° 0 mm 2 m/s 610 mmHg 37%
    15:00 +26°C° 0 mm 2 m/s 608 mmHg 43%
    16:00 +24°C° 0 mm 2 m/s 607 mmHg 50%
    17:00 +23°C° 0 mm 2 m/s 607 mmHg 55%
    18:00 +20°C° 0 mm 2 m/s 607 mmHg 60%
    19:00 +19°C° 0 mm 1 m/s 607 mmHg 64%
    20:00 +19°C° 0 mm 1 m/s 608 mmHg 67%
    21:00 +18°C° 0 mm 1 m/s 608 mmHg 69%
    22:00 +18°C° 0 mm 1 m/s 608 mmHg 72%
    23:00 +18°C° 0 mm 1 m/s 608 mmHg 70%

    26 Martie, Marţi

    Timp Temperatura Precipitaţii Vânt Presiune Umiditate
    00:00 +18°C° 0 mm 1 m/s 608 mmHg 69%
    01:00 +18°C° 0 mm 1 m/s 608 mmHg 67%
    02:00 +18°C° 0 mm 1 m/s 608 mmHg 65%
    03:00 +19°C° 0 mm 1 m/s 608 mmHg 63%
    04:00 +19°C° 0 mm 1 m/s 608 mmHg 61%
    05:00 +19°C° 0.2 mm 1 m/s 608 mmHg 62%
    06:00 +19°C° 0.2 mm 1 m/s 608 mmHg 63%
    07:00 +19°C° 0.2 mm 1 m/s 608 mmHg 64%
    08:00 +22°C° 0 mm 1 m/s 609 mmHg 56%
    09:00 +24°C° 0 mm 1 m/s 611 mmHg 47%
    10:00 +27°C° 0 mm 1 m/s 612 mmHg 39%
    11:00 +28°C° 0 mm 1 m/s 611 mmHg 39%
    12:00 +28°C° 0 mm 1 m/s 611 mmHg 38%
    13:00 +28°C° 0 mm 1 m/s 610 mmHg 37%
    14:00 +26°C° 0.6 mm 1 m/s 609 mmHg 47%
    15:00 +24°C° 0.6 mm 1 m/s 608 mmHg 56%
    16:00 +21°C° 0.6 mm 1 m/s 606 mmHg 65%
    17:00 +21°C° 0.2 mm 1 m/s 607 mmHg 68%
    18:00 +20°C° 0.2 mm 1 m/s 607 mmHg 71%
    19:00 +19°C° 0.2 mm 1 m/s 607 mmHg 74%
    20:00 +19°C° 1.4 mm 1 m/s 608 mmHg 78%
    21:00 +19°C° 1.4 mm 1 m/s 608 mmHg 82%
    22:00 +18°C° 1.4 mm 1 m/s 609 mmHg 86%
    23:00 +18°C° 0.2 mm 1 m/s 609 mmHg 84%

    27 Martie, Miercuri

    Timp Temperatura Precipitaţii Vânt Presiune Umiditate
    00:00 +18°C° 0.2 mm 1 m/s 608 mmHg 82%
    01:00 +18°C° 0.2 mm 1 m/s 608 mmHg 80%
    02:00 +18°C° 0.1 mm 1 m/s 608 mmHg 79%
    03:00 +18°C° 0.1 mm 1 m/s 608 mmHg 78%
    04:00 +18°C° 0.1 mm 1 m/s 607 mmHg 77%
    05:00 +18°C° 0.1 mm 1 m/s 608 mmHg 77%
    06:00 +18°C° 0.1 mm 1 m/s 608 mmHg 76%
    07:00 +18°C° 0.1 mm 1 m/s 608 mmHg 76%
    08:00 +21°C° 0 mm 1 m/s 610 mmHg 66%
    09:00 +24°C° 0 mm 1 m/s 611 mmHg 56%
    10:00 +27°C° 0 mm 1 m/s 612 mmHg 46%
    11:00 +27°C° 0.1 mm 1 m/s 611 mmHg 46%
    12:00 +27°C° 0.1 mm 1 m/s 611 mmHg 45%
    13:00 +27°C° 0.1 mm 1 m/s 610 mmHg 45%
    14:00 +26°C° 1.5 mm 1 m/s 610 mmHg 52%
    15:00 +24°C° 1.5 mm 1 m/s 609 mmHg 59%
    16:00 +22°C° 1.5 mm 1 m/s 608 mmHg 66%
    17:00 +22°C° 1.1 mm 1 m/s 608 mmHg 70%
    18:00 +21°C° 1.1 mm 1 m/s 608 mmHg 74%
    19:00 +20°C° 1.1 mm 1 m/s 609 mmHg 78%
    20:00 +19°C° 1.4 mm 1 m/s 609 mmHg 81%
    21:00 +18°C° 1.4 mm 1 m/s 609 mmHg 85%
    22:00 +18°C° 1.4 mm 1 m/s 609 mmHg 88%
    23:00 +16°C° 0.8 mm 1 m/s 609 mmHg 88%
    Arată mai mult